Lexington, KY

5:06 PM EST on February 08, 2016 (GMT -0500)
Gleneagles Subdivision Near Hamburg | | Change Station
CLOSE
Current Station
Personal Weather Station
Location: Lexington, KY
Elevation: 1017 ft
Nearby Weather Stations
Active Advisory: Winter Weather Advisory

Elev 1017 ft 38.02 °N, 84.40 °W | Updated 6 minutes ago

Snow
Snow
33.6 °F
Feels Like 34 °F
N
2.4
Wind Variable Wind from SSW
Gusts 9.8 mph

Today
High -- | Low -- °F
--% Chance of Precip.
Yesterday
High -- | Low -- °F
Precip. -- in
Pressure 29.70 in
Visibility 2.5 miles
Clouds Mostly Cloudy 1300 ft
Mostly Cloudy 2700 ft
Overcast 3300 ft
Windchill 34 °F
Dew Point 28 °F
Humidity 81%
Rainfall 0.25 in
Snow Depth Not available.
7:35 AM 6:08 PM
New Moon, 0% visible
SPECI KLEX 082201Z 27008KT 2 1/2SM -SN BR BKN013 BKN027 OVC033 01/M01 A2970 RMK AO2 P0000 T00061006
Pressure 29.70 in
Visibility 2.5 miles
Clouds Mostly Cloudy 1300 ft
Mostly Cloudy 2700 ft
Overcast 3300 ft
Windchill 34 °F
Dew Point 28 °F
Humidity 81%
Rainfall 0.25 in
Snow Depth Not available.
7:35 AM 6:08 PM
New Moon, 0% visible
SPECI KLEX 082201Z 27008KT 2 1/2SM -SN BR BKN013 BKN027 OVC033 01/M01 A2970 RMK AO2 P0000 T00061006

10-Day Weather Forecast

Almanac

Astronomy

Feb. 08, 2016 Rise Set
Actual Time
Civil Twilight
Nautical Twilight
Astronomical Twilight
Moon
Length of Visible Light
Length of Day
Tomorrow will be .
, % of the Moon is Illuminated

Today's Extremes

State Highs State Lows

Community

WunderPhotos

Upload Photos

1,891,511 photos uploaded!

WunderBlog® & News

Nearby

Air Quality

  Air Quality AQ Index Pollutant
Not available.

Snow Depth

Station Depth Elevation

Earthquake Activity

City Distance Mag. Time & Date
Minimum magnitude displayed is 2.5.

Coastal Water Temperatures

Place Temperature

Stations

Nearby Weather Stations

Station Location Temp. Windchill Dew Point Humidity Wind Precip. Elev Updated Type
                   

Watches & Warnings

Winter Weather Advisory
Issued: 1:54 PM CST Feb. 8, 2016 – National Weather Service

... Winter Weather Advisory remains in effect until 6 PM EST /5 PM
CST/ Tuesday...

* timing... late this afternoon through at least Tuesday evening.

* Main impact... periods of moderate to briefly heavy snow
showers will impact travel at times. Roads may become slick
and snow covered... especially secondary and untreated
surfaces.

* Other impacts... gusty winds along with moderate snow showers may
reduce visibility at times. Also wet roadways may become slick
overnight as temperatures drop.

Precautionary/preparedness actions...

Research shows that more traffic accidents occur with an inch or
less of snow... before drivers realize that traction is reduced.
Don't become a statistic... slow down and leave extra distance
between vehicles.



Rjs